CST,Max TemperatureF,Mean TemperatureF,Min TemperatureF,Max Dew PointF,MeanDew PointF,Min DewpointF,Max Humidity, Mean Humidity, Min Humidity, Max Sea Level PressureIn, Mean Sea Level PressureIn, Min Sea Level PressureIn, Max VisibilityMiles, Mean VisibilityMiles, Min VisibilityMiles, Max Wind SpeedMPH, Mean Wind SpeedMPH, Max Gust SpeedMPH,PrecipitationIn, CloudCover, Events, WindDirDegrees
2011-12-1,40,31,21,28,20,9,81,64,46,30.57,30.31,29.95,10,10,10,30,14,38,0.00,3,,9
2011-12-2,35,24,13,32,20,9,89,69,49,30.56,30.26,30.06,10,9,3,22,10,29,0.07,4,Rain,184
2011-12-3,38,34,30,37,32,25,100,93,85,30.15,29.97,29.87,10,3,1,21,10,26,1.27,8,Rain-Snow-Thunderstorm,24
2011-12-4,36,28,19,26,22,18,96,80,64,30.42,30.25,30.14,10,10,8,16,5,28,0.00,1,,295
2011-12-5,23,19,14,18,13,9,91,82,73,30.57,30.49,30.38,10,10,6,22,13,30,0.00,5,,358
2011-12-6,24,17,9,11,9,5,84,69,54,30.53,30.38,30.18,10,10,10,13,6,17,0.00,2,,298
2011-12-7,40,28,15,25,17,10,88,68,48,30.24,30.18,30.08,10,10,10,15,8,20,0.00,0,,282
2011-12-8,35,27,18,28,23,17,100,86,72,30.34,30.24,30.19,10,8,5,16,5,18,0.00,5,,32
2011-12-9,34,26,18,23,21,16,91,78,64,30.53,30.42,30.29,10,10,6,13,6,16,0.00,7,,344
2011-12-10,45,31,17,28,25,15,100,77,53,30.52,30.41,30.32,10,7,4,20,10,60,0.00,3,,216
2011-12-11,46,38,29,36,33,27,100,83,65,30.34,30.18,30.08,10,6,3,26,15,32,0.00,6,,183
2011-12-12,44,41,38,36,34,30,82,76,70,30.25,30.18,30.10,10,10,9,21,10,26,0.00,8,,184
2011-12-13,44,41,38,43,39,34,100,90,79,30.27,30.14,29.98,10,4,1,20,10,23,0.18,8,Rain,161
2011-12-14,56,45,34,51,45,30,100,89,77,29.99,29.80,29.70,10,9,4,21,12,25,0.19,6,Rain,216
2011-12-15,42,33,24,28,22,19,89,64,39,30.43,30.27,30.01,10,10,10,22,8,26,0.00,0,,337
2011-12-16,44,32,19,27,23,17,92,69,45,30.48,30.40,30.29,10,10,10,17,7,23,0.00,0,,201
2011-12-17,51,40,28,30,26,24,85,64,42,30.41,30.35,30.26,10,10,10,15,9,18,0.00,0,,246
2011-12-18,57,46,34,39,34,26,82,67,51,30.25,30.01,29.84,10,10,10,23,10,32,0.00,0,,215
2011-12-19,44,38,31,38,29,24,100,85,69,30.21,30.06,29.85,10,8,2,28,14,35,0.02,6,Snow,22
2011-12-20,35,31,27,27,24,20,92,78,64,30.09,30.00,29.85,10,5,0,24,11,31,0.13,8,Fog-Snow,2
2011-12-21,40,31,21,27,21,15,81,70,58,30.02,29.84,29.73,10,10,10,16,8,18,0.00,1,,240
2011-12-22,34,25,16,30,23,14,92,75,58,30.51,30.26,30.03,10,9,3,28,15,37,T,6,Snow,13
2011-12-23,33,23,13,19,15,11,92,71,49,30.51,30.41,30.29,10,10,10,21,10,26,0.00,0,,242
2011-12-24,51,36,21,26,22,18,88,59,29,30.43,30.37,30.29,10,10,10,14,9,17,0.00,0,,256
2011-12-25,51,39,26,27,23,19,78,57,36,30.50,30.42,30.33,10,10,10,15,8,22,0.00,0,,277
2011-12-26,45,36,27,32,26,22,84,73,62,30.26,30.09,29.97,10,10,10,21,10,26,0.00,2,,232
2011-12-27,47,38,29,25,22,19,72,55,37,30.18,30.11,30.04,10,10,10,18,10,23,0.00,0,,280
2011-12-28,53,40,26,30,26,22,81,60,38,30.05,29.95,29.83,10,10,10,16,10,22,0.00,0,,238
2011-12-29,52,43,34,40,32,27,71,59,46,29.82,29.71,29.56,10,10,10,30,12,39,T,2,,245
2011-12-30,58,46,34,36,26,16,76,48,19,29.92,29.86,29.73,10,10,10,23,13,31,0.00,0,,263
2011-12-31,61,50,38,38,30,26,64,48,32,30.12,29.73,29.48,10,10,8,30,17,44,0.01,2,Rain,259